CW0214 Weather Reports


time (UTC)temp
C
wind
direction
speed
KPH
gust
KPH
rain 1hr
cm
rain 24hr
cm
rain mn
cm
humidity
%
barometer
mb
20180818042903 18 240 0.0 0.0 0.00 0.00 0.00 81 1013.0
20180818042403 18 240 0.0 0.0 0.00 0.00 0.00 81 1013.0
20180818041902 18 240 0.0 0.0 0.00 0.00 0.00 81 1013.1
20180818041403 18 240 0.0 0.0 0.00 0.00 0.00 81 1013.0
20180818040903 18 240 0.0 0.0 0.00 0.00 0.00 81 1013.0
20180818040403 18 240 0.0 0.0 0.00 0.00 0.00 79 1013.0
20180818035903 18 240 0.0 0.0 0.00 0.00 0.00 78 1013.0
20180818035403 18 240 0.0 0.0 0.00 0.00 0.00 78 1012.9
20180818034903 19 240 0.0 0.0 0.00 0.00 0.00 78 1012.9
20180818034402 19 240 0.0 0.0 0.00 0.00 0.00 78 1012.9
20180818033903 19 240 0.0 0.0 0.00 0.00 0.00 77 1012.9
20180818033403 19 240 0.0 0.0 0.00 0.00 0.00 77 1012.9
20180818032903 19 240 0.0 0.0 0.00 0.00 0.00 77 1012.9
20180818032403 19 240 0.0 0.0 0.00 0.00 0.00 77 1012.9
20180818031903 19 240 0.0 0.0 0.00 0.00 0.00 77 1012.9
20180818031403 20 240 0.0 0.0 0.00 0.00 0.00 75 1012.9
20180818030903 20 240 0.0 0.0 0.00 0.00 0.00 75 1012.9
20180818030402 20 240 3.2 4.8 0.00 0.00 0.00 75 1012.9
20180818025902 20 240 0.0 1.6 0.00 0.00 0.00 76 1012.9
20180818025402 20 240 0.0 3.2 0.00 0.00 0.00 77 1012.9
20180818024903 19 240 0.0 0.0 0.00 0.00 0.00 77 1012.9
20180818024402 19 240 0.0 0.0 0.00 0.00 0.00 77 1013.0
20180818023903 19 240 0.0 0.0 0.00 0.00 0.00 77 1012.9
20180818023403 19 240 0.0 0.0 0.00 0.00 0.00 76 1012.9
20180818022903 20 240 0.0 0.0 0.00 0.00 0.00 76 1012.9
20180818022402 20 240 0.0 0.0 0.00 0.00 0.00 76 1012.9
20180818021903 20 240 0.0 0.0 0.00 0.00 0.00 75 1012.9
20180818021403 20 240 0.0 0.0 0.00 0.00 0.00 75 1012.9
20180818020902 20 240 0.0 0.0 0.00 0.00 0.00 75 1012.9
20180818020402 20 240 0.0 0.0 0.00 0.00 0.00 74 1013.0
20180818015903 20 240 0.0 0.0 0.00 0.00 0.00 74 1012.9
20180818015403 20 240 0.0 1.6 0.00 0.00 0.00 73 1012.9
20180818014903 20 240 0.0 0.0 0.00 0.00 0.00 74 1012.9
20180818014403 20 240 0.0 0.0 0.00 0.00 0.00 73 1012.9
20180818013903 20 240 0.0 0.0 0.00 0.00 0.00 73 1012.9
20180818013403 20 240 0.0 1.6 0.00 0.00 0.00 72 1012.9
20180818012902 21 240 0.0 0.0 0.00 0.00 0.00 71 1012.9
20180818012403 21 240 0.0 0.0 0.00 0.00 0.00 70 1012.9
20180818011903 21 240 0.0 0.0 0.00 0.00 0.00 71 1012.9
20180818011403 21 240 0.0 1.6 0.00 0.00 0.00 71 1013.0
20180818010903 21 240 1.6 8.0 0.00 0.00 0.00 71 1013.0
20180818010403 21 240 1.6 8.0 0.00 0.00 0.00 71 1013.1
20180818005903 21 240 1.6 4.8 0.00 0.00 0.00 70 1013.3
20180818005403 21 240 0.0 0.0 0.00 0.00 0.00 70 1013.3
20180818004902 21 240 0.0 3.2 0.00 0.00 0.00 70 1013.3
20180818004404 21 240 0.0 4.8 0.00 0.00 0.00 69 1013.3
20180818003902 21 240 0.0 4.8 0.00 0.00 0.00 69 1013.4
20180818003402 21 240 0.0 4.8 0.00 0.00 0.00 69 1013.4
20180818002903 21 240 0.0 3.2 0.00 0.00 0.00 69 1013.4
20180818002403 21 240 0.0 3.2 0.00 0.00 0.00 69 1013.4
20180818001903 21 240 3.2 9.7 0.00 0.00 0.00 68 1013.4
20180818001403 21 240 1.6 4.8 0.00 0.00 0.00 68 1013.4
20180818000903 21 240 1.6 8.0 0.00 0.00 0.00 68 1013.4
20180818000403 21 237 1.6 11.3 0.00 0.00 0.00 68 1013.5
20180817235903 22 246 1.6 8.0 0.00 0.00 0.00 68 1013.5
20180817235403 22 265 3.2 8.0 0.00 0.00 0.00 67 1013.5
20180817234903 22 266 3.2 11.3 0.00 0.00 0.00 67 1013.5
20180817234403 22 254 3.2 11.3 0.00 0.00 0.00 67 1013.5
20180817233903 22 248 3.2 12.9 0.00 0.00 0.00 67 1013.5
20180817233402 22 247 0.0 8.0 0.00 0.00 0.00 67 1013.4
20180817232903 22 248 3.2 8.0 0.00 0.00 0.00 66 1013.5
20180817232403 22 248 1.6 9.7 0.00 0.00 0.00 66 1013.5
20180817231903 22 248 1.6 4.8 0.00 0.00 0.00 66 1013.5
20180817231403 22 248 3.2 9.7 0.00 0.00 0.00 66 1013.5
20180817230903 22 234 1.6 9.7 0.00 0.00 0.00 66 1013.5
20180817230403 22 223 4.8 11.3 0.00 0.00 0.00 65 1013.5
20180817225903 22 255 0.0 9.7 0.00 0.00 0.00 65 1013.5
20180817225403 22 254 0.0 8.0 0.00 0.00 0.00 64 1013.5
20180817224903 22 254 0.0 0.0 0.00 0.00 0.00 64 1013.5
20180817224403 23 254 0.0 4.8 0.00 0.00 0.00 64 1013.5
20180817223903 23 207 0.0 3.2 0.00 0.00 0.00 64 1013.5
20180817223403 23 207 1.6 8.0 0.00 0.00 0.00 63 1013.5
20180817222904 23 251 1.6 4.8 0.00 0.00 0.00 63 1013.5
20180817222403 23 251 1.6 8.0 0.00 0.00 0.00 62 1013.4
20180817221903 23 252 1.6 9.7 0.00 0.00 0.00 62 1013.4
20180817221403 23 284 1.6 9.7 0.00 0.00 0.00 62 1013.5
20180817220903 23 247 0.0 9.7 0.00 0.00 0.00 62 1013.4
20180817220403 23 226 1.6 9.7 0.00 0.00 0.00 61 1013.5
20180817215903 23 262 1.6 11.3 0.00 0.00 0.00 61 1013.4
20180817215405 24 271 1.6 11.3 0.00 0.00 0.00 61 1013.4
20180817214903 24 248 0.0 9.7 0.00 0.00 0.00 60 1013.4
20180817214404 24 265 3.2 11.3 0.00 0.00 0.00 60 1013.5
20180817213904 24 267 1.6 8.0 0.00 0.00 0.00 60 1013.5
20180817213404 24 263 0.0 1.6 0.00 0.00 0.00 60 1013.4
20180817212903 24 317 3.2 9.7 0.00 0.00 0.00 60 1013.5
20180817212403 24 253 3.2 12.9 0.00 0.00 0.00 59 1013.4
20180817211903 24 302 0.0 1.6 0.00 0.00 0.00 59 1013.4
20180817211403 24 300 0.0 8.0 0.00 0.00 0.00 59 1013.4
20180817210903 25 269 0.0 8.0 0.00 0.00 0.00 59 1013.4
20180817210403 25 270 0.0 8.0 0.00 0.00 0.00 58 1013.4
20180817205903 25 270 1.6 8.0 0.00 0.00 0.00 58 1013.4
20180817205403 25 269 3.2 11.3 0.00 0.00 0.00 58 1013.3
20180817204903 25 300 1.6 11.3 0.00 0.00 0.00 57 1013.3
20180817204402 25 260 0.0 8.0 0.00 0.00 0.00 57 1013.3
20180817203903 25 276 1.6 12.9 0.00 0.00 0.00 57 1013.1
20180817203403 25 279 1.6 11.3 0.00 0.00 0.00 57 1013.1
20180817202903 25 321 4.8 12.9 0.00 0.00 0.00 56 1013.1
20180817202403 25 314 1.6 16.1 0.00 0.00 0.00 56 1013.1
20180817201904 25 268 3.2 16.1 0.00 0.00 0.00 56 1013.1
20180817201404 25 283 3.2 16.1 0.00 0.00 0.00 56 1013.0
20180817200903 26 281 1.6 11.3 0.00 0.00 0.00 56 1013.0
20180817200403 26 280 0.0 0.0 0.00 0.00 0.00 55 1013.0
20180817195904 26 266 0.0 11.3 0.00 0.00 0.00 55 1012.9
20180817195403 26 232 3.2 14.5 0.00 0.00 0.00 55 1012.8
20180817194903 26 275 4.8 14.5 0.00 0.00 0.00 54 1012.7
20180817194403 26 278 3.2 19.3 0.00 0.00 0.00 54 1012.7
20180817193903 26 258 3.2 16.1 0.00 0.00 0.00 54 1012.7
20180817193403 26 296 3.2 12.9 0.00 0.00 0.00 54 1012.6
20180817192903 27 285 1.6 14.5 0.00 0.00 0.00 53 1012.6
20180817192403 27 242 6.4 20.9 0.00 0.00 0.00 53 1012.6
20180817191903 27 239 3.2 16.1 0.00 0.00 0.00 52 1012.6
20180817191403 27 275 3.2 12.9 0.00 0.00 0.00 52 1012.6
20180817190903 27 264 8.0 16.1 0.00 0.00 0.00 52 1012.6
20180817190403 28 272 4.8 12.9 0.00 0.00 0.00 51 1012.6
20180817185904 28 204 4.8 11.3 0.00 0.00 0.00 51 1012.5
20180817185403 28 243 1.6 11.3 0.00 0.00 0.00 51 1012.4
20180817184904 28 229 4.8 9.7 0.00 0.00 0.00 51 1012.4
20180817184403 28 207 1.6 14.5 0.00 0.00 0.00 51 1012.3
20180817183903 28 203 1.6 12.9 0.00 0.00 0.00 50 1012.3
20180817183404 28 259 3.2 14.5 0.00 0.00 0.00 50 1012.3
20180817182903 28 220 1.6 14.5 0.00 0.00 0.00 50 1012.2
20180817182403 28 215 8.0 19.3 0.00 0.00 0.00 50 1012.1
20180817181904 28 229 4.8 12.9 0.00 0.00 0.00 50 1012.1
20180817181403 29 253 4.8 19.3 0.00 0.00 0.00 50 1012.1
20180817180903 29 274 8.0 12.9 0.00 0.00 0.00 49 1012.1
20180817180403 29 269 4.8 14.5 0.00 0.00 0.00 49 1012.0
20180817175903 29 195 1.6 11.3 0.00 0.00 0.00 49 1012.0
20180817175403 29 212 4.8 11.3 0.00 0.00 0.00 49 1012.0
20180817174902 30 218 8.0 16.1 0.00 0.00 0.00 49 1012.0
20180817174403 30 231 3.2 8.0 0.00 0.00 0.00 48 1012.0
20180817173904 30 253 3.2 12.9 0.00 0.00 0.00 49 1012.0
20180817173403 30 155 3.2 11.3 0.00 0.00 0.00 48 1012.1
20180817172903 30 197 3.2 12.9 0.00 0.00 0.00 48 1012.1
20180817172404 30 216 6.4 12.9 0.00 0.00 0.00 48 1012.0
20180817171903 30 250 3.2 19.3 0.00 0.00 0.00 48 1012.1
20180817171403 30 207 4.8 16.1 0.00 0.00 0.00 47 1012.1
20180817170903 30 318 0.0 8.0 0.00 0.00 0.00 46 1012.1
20180817170404 30 9 1.6 8.0 0.00 0.00 0.00 46 1012.0
20180817165903 31 151 1.6 8.0 0.00 0.00 0.00 46 1012.1
20180817165403 31 55 3.2 19.3 0.00 0.00 0.00 46 1012.1
20180817164903 31 351 4.8 14.5 0.00 0.00 0.00 45 1012.0
20180817164403 31 309 8.0 16.1 0.00 0.00 0.00 45 1012.0
20180817163904 31 32 3.2 19.3 0.00 0.00 0.00 44 1012.0
20180817163403 31 65 6.4 19.3 0.00 0.00 0.00 43 1012.0
20180817162903 31 60 6.4 12.9 0.00 0.00 0.00 42 1012.0
20180817162403 31 100 0.0 11.3 0.00 0.00 0.00 41 1012.0
20180817161903 31 101 4.8 12.9 0.00 0.00 0.00 41 1012.0
20180817161403 31 71 1.6 12.9 0.00 0.00 0.00 41 1012.0
20180817160903 31 3 1.6 9.7 0.00 0.00 0.00 41 1012.0
20180817160403 31 40 3.2 14.5 0.00 0.00 0.00 41 1012.1
20180817155903 31 85 6.4 19.3 0.00 0.00 0.00 41 1012.2
20180817155403 31 41 4.8 16.1 0.00 0.00 0.00 41 1012.2
20180817154903 31 75 4.8 19.3 0.00 0.00 0.00 41 1012.3
20180817154403 32 96 4.8 14.5 0.00 0.00 0.00 40 1012.2
20180817153903 32 135 4.8 12.9 0.00 0.00 0.00 41 1012.4
20180817153404 32 51 6.4 14.5 0.00 0.00 0.00 41 1012.4
20180817152903 32 354 9.7 16.1 0.00 0.00 0.00 40 1012.4
20180817152403 32 29 4.8 16.1 0.00 0.00 0.00 41 1012.4
20180817151904 32 40 9.7 19.3 0.00 0.00 0.00 41 1012.5
20180817151404 32 113 9.7 12.9 0.00 0.00 0.00 41 1012.5
20180817150903 32 48 8.0 19.3 0.00 0.00 0.00 41 1012.7
20180817150403 32 43 4.8 12.9 0.00 0.00 0.00 41 1012.7
20180817145903 32 44 8.0 16.1 0.00 0.00 0.00 41 1012.6
20180817145403 32 19 1.6 20.9 0.00 0.00 0.00 42 1012.6
20180817144904 32 22 8.0 19.3 0.00 0.00 0.00 42 1012.8
20180817144403 31 38 11.3 19.3 0.00 0.00 0.00 42 1012.9
20180817143904 31 83 1.6 12.9 0.00 0.00 0.00 42 1013.0
20180817143403 32 117 8.0 19.3 0.00 0.00 0.00 41 1013.0
20180817142903 32 23 0.0 11.3 0.00 0.00 0.00 41 1013.0
20180817142403 31 22 3.2 14.5 0.00 0.00 0.00 43 1013.1
20180817141903 31 356 9.7 12.9 0.00 0.00 0.00 42 1013.2
20180817141404 31 30 9.7 19.3 0.00 0.00 0.00 42 1013.3
20180817140904 31 17 9.7 20.9 0.00 0.00 0.00 44 1013.3
20180817140403 31 103 3.2 11.3 0.00 0.00 0.00 44 1013.4
20180817135903 31 165 1.6 8.0 0.00 0.00 0.00 43 1013.5
20180817135403 31 171 8.0 16.1 0.00 0.00 0.00 44 1013.5
20180817134904 31 140 8.0 16.1 0.00 0.00 0.00 44 1013.5
20180817134403 31 143 3.2 19.3 0.00 0.00 0.00 44 1013.5
20180817133904 31 40 1.6 11.3 0.00 0.00 0.00 44 1013.5
20180817133403 30 35 3.2 12.9 0.00 0.00 0.00 46 1013.6
20180817132904 31 321 8.0 14.5 0.00 0.00 0.00 45 1013.7
20180817132403 30 273 8.0 20.9 0.00 0.00 0.00 46 1013.8
20180817131903 30 243 9.7 16.1 0.00 0.00 0.00 47 1013.9
20180817131403 30 321 8.0 16.1 0.00 0.00 0.00 47 1013.9
20180817130904 30 256 4.8 12.9 0.00 0.00 0.00 47 1014.0
20180817130403 30 314 4.8 12.9 0.00 0.00 0.00 48 1014.0
20180817125904 29 18 8.0 12.9 0.00 0.00 0.00 49 1014.1
20180817125403 29 256 6.4 16.1 0.00 0.00 0.00 49 1014.1
20180817124903 29 157 4.8 14.5 0.00 0.00 0.00 49 1014.2
20180817124403 29 193 4.8 11.3 0.00 0.00 0.00 49 1014.2
20180817123903 28 232 1.6 16.1 0.00 0.00 0.00 51 1014.3
20180817123404 28 255 4.8 11.3 0.00 0.00 0.00 51 1014.3
20180817122904 28 214 3.2 11.3 0.00 0.00 0.00 51 1014.4
20180817122403 28 181 0.0 11.3 0.00 0.00 0.00 52 1014.4
20180817121903 28 168 6.4 19.3 0.00 0.00 0.00 52 1014.5
20180817121403 28 238 6.4 12.9 0.00 0.00 0.00 53 1014.6
20180817120904 27 183 8.0 14.5 0.00 0.00 0.00 54 1014.6
20180817120403 27 54 4.8 14.5 0.00 0.00 0.00 54 1014.6
20180817115903 27 43 8.0 11.3 0.00 0.00 0.00 55 1014.6
20180817115404 26 355 1.6 4.8 0.00 0.00 0.00 56 1014.7
20180817114903 27 355 3.2 9.7 0.00 0.00 0.00 54 1014.7
20180817114404 27 347 3.2 9.7 0.00 0.00 0.00 56 1014.7
20180817113903 26 311 6.4 14.5 0.00 0.00 0.00 58 1014.8
20180817113404 26 291 1.6 11.3 0.00 0.00 0.00 57 1014.8
20180817112904 26 291 3.2 14.5 0.00 0.00 0.00 60 1015.0
20180817112403 26 290 8.0 16.1 0.00 0.00 0.00 58 1015.0
20180817111904 26 198 4.8 14.5 0.00 0.00 0.00 59 1015.1
20180817111404 26 165 3.2 12.9 0.00 0.00 0.00 60 1015.2
20180817110903 25 132 6.4 11.3 0.00 0.00 0.00 61 1015.2
20180817110404 25 132 4.8 11.3 0.00 0.00 0.00 61 1015.2
20180817105904 25 64 9.7 16.1 0.00 0.00 0.00 63 1015.2
20180817105403 25 222 4.8 11.3 0.00 0.00 0.00 62 1015.2
20180817104903 25 165 3.2 9.7 0.00 0.00 0.00 62 1015.3
20180817104403 24 160 1.6 11.3 0.00 0.00 0.00 64 1015.3
20180817103903 24 155 6.4 12.9 0.00 0.00 0.00 65 1015.3
20180817103404 23 112 3.2 9.7 0.00 0.00 0.00 67 1015.3
20180817102903 23 112 3.2 9.7 0.00 0.00 0.00 68 1015.4
20180817102403 23 153 4.8 11.3 0.00 0.00 0.00 68 1015.4
20180817101903 22 146 4.8 9.7 0.00 0.00 0.00 70 1015.3
20180817101403 22 146 4.8 12.9 0.00 0.00 0.00 70 1015.3
20180817100904 22 137 8.0 14.5 0.00 0.00 0.00 71 1015.3
20180817100404 22 119 6.4 14.5 0.00 0.00 0.00 72 1015.3
20180817095903 22 158 8.0 11.3 0.00 0.00 0.00 73 1015.3
20180817095403 22 253 3.2 9.7 0.00 0.00 0.00 74 1015.3
20180817094905 22 253 0.0 4.8 0.00 0.00 0.00 72 1015.3
20180817094404 22 253 3.2 9.7 0.00 0.00 0.00 71 1015.4
20180817093904 22 253 0.0 1.6 0.00 0.00 0.00 74 1015.4
20180817093403 22 253 3.2 4.8 0.00 0.00 0.00 73 1015.3
20180817092903 21 253 1.6 8.0 0.00 0.00 0.00 77 1015.4
20180817092404 20 253 1.6 4.8 0.00 0.00 0.00 79 1015.4
20180817091904 21 253 0.0 4.8 0.00 0.00 0.00 75 1015.4
20180817091403 21 253 0.0 4.8 0.00 0.00 0.00 78 1015.4
20180817090903 20 253 0.0 0.0 0.00 0.00 0.00 78 1015.5
20180817090404 20 253 0.0 3.2 0.00 0.00 0.00 79 1015.4
20180817085904 20 253 0.0 1.6 0.00 0.00 0.00 80 1015.4
20180817085403 19 253 0.0 4.8 0.00 0.00 0.00 82 1015.4
20180817084904 19 253 0.0 4.8 0.00 0.00 0.00 84 1015.4
20180817084404 18 253 0.0 4.8 0.00 0.00 0.00 85 1015.3
20180817083903 18 253 0.0 0.0 0.00 0.00 0.00 85 1015.2
20180817083403 18 253 0.0 0.0 0.00 0.00 0.00 86 1015.0
20180817082903 18 253 0.0 0.0 0.00 0.00 0.00 86 1014.9
20180817082404 18 253 0.0 0.0 0.00 0.00 0.00 86 1014.9
20180817081904 18 253 4.8 8.0 0.00 0.00 0.00 87 1014.9
20180817081404 18 253 0.0 8.0 0.00 0.00 0.00 87 1014.9
20180817080903 18 253 0.0 4.8 0.00 0.00 0.00 87 1014.9
20180817080404 18 253 0.0 1.6 0.00 0.00 0.00 87 1014.9
20180817075904 17 253 1.6 4.8 0.00 0.00 0.00 88 1014.9
20180817075403 17 253 1.6 8.0 0.00 0.00 0.00 88 1015.0
20180817074903 17 253 0.0 0.0 0.00 0.00 0.00 88 1014.9
20180817074403 17 253 0.0 0.0 0.00 0.00 0.00 88 1015.0
20180817073903 17 253 4.8 9.7 0.00 0.00 0.00 89 1014.9
20180817073404 17 253 1.6 8.0 0.00 0.00 0.00 89 1015.0
20180817072904 17 253 1.6 8.0 0.00 0.00 0.00 90 1014.9
20180817072404 17 253 1.6 9.7 0.00 0.00 0.00 90 1015.0
20180817071403 17 160 1.6 12.9 0.00 0.00 0.00 91 1014.9
20180817070903 17 148 0.0 8.0 0.00 0.00 0.00 92 1014.9
20180817070403 17 184 3.2 11.3 0.00 0.00 0.00 91 1014.9
20180817065903 17 162 0.0 8.0 0.00 0.00 0.00 91 1014.8
20180817065403 17 190 1.6 11.3 0.00 0.00 0.00 91 1014.8
20180817064903 17 161 1.6 12.9 0.00 0.00 0.00 91 1014.7
20180817064403 17 176 1.6 9.7 0.00 0.00 0.00 91 1014.6
20180817063903 17 160 0.0 0.0 0.00 0.00 0.00 91 1014.5
20180817063403 17 160 0.0 0.0 0.00 0.00 0.00 91 1014.4
20180817062903 17 160 0.0 4.8 0.00 0.00 0.00 91 1014.3
20180817062403 17 213 0.0 0.0 0.00 0.00 0.00 92 1014.3
20180817061903 17 213 0.0 4.8 0.00 0.00 0.00 91 1014.3
20180817061404 17 188 6.4 9.7 0.00 0.00 0.00 91 1014.3
20180817060904 17 157 0.0 0.0 0.00 0.00 0.00 91 1014.3
20180817060403 17 157 0.0 0.0 0.00 0.00 0.00 91 1014.2
20180817055903 17 157 0.0 0.0 0.00 0.00 0.00 91 1014.2
20180817055403 17 157 0.0 4.8 0.00 0.00 0.00 91 1014.2
20180817054903 17 157 0.0 4.8 0.00 0.00 0.00 91 1014.3
20180817054403 17 157 0.0 0.0 0.00 0.00 0.00 91 1014.2
20180817053903 17 157 0.0 0.0 0.00 0.00 0.00 91 1014.2
20180817053403 16 157 0.0 0.0 0.00 0.00 0.00 91 1014.2
20180817052903 17 157 0.0 0.0 0.00 0.00 0.00 91 1014.2
20180817052404 17 158 3.2 9.7 0.00 0.00 0.00 91 1014.0
20180817051904 17 148 0.0 11.3 0.00 0.00 0.00 91 1014.2
20180817051403 17 149 1.6 11.3 0.00 0.00 0.00 91 1014.0
20180817050903 17 146 1.6 11.3 0.00 0.00 0.00 91 1013.8
20180817050404 17 146 0.0 0.0 0.00 0.00 0.00 91 1013.8
20180817045903 17 146 0.0 0.0 0.00 0.00 0.00 91 1013.8
20180817045404 17 146 0.0 3.2 0.00 0.00 0.00 90 1013.7
20180817044904 17 146 0.0 0.0 0.00 0.00 0.00 91 1013.7
20180817044404 17 146 0.0 0.0 0.00 0.00 0.00 91 1013.9
20180817043904 17 145 3.2 4.8 0.00 0.00 0.00 90 1013.7
20180817043404 17 149 3.2 9.7 0.00 0.00 0.00 90 1013.7